Voltar ao catálogo

NOAA 16 DEB

AtivoSSO
NORAD 41516·DEBRIS·🇺🇸 United States

Lançado Sep 21, 2000 de Vandenberg Space Force Base

Loading…

Próximas Passagens (próximas 24 horas)

TLE

AtualizadoSource: Space-Track

Época: Sep 14, 2026, 11:27 UTC

1 41516U 00055MQ  26257.47735272  .00003089  00000-0  10627-2 0  9994
2 41516  98.6692 347.0818 0011968 236.6742 123.3298 14.36697132539462

Acompanhe NOAA 16 DEB em tempo real com AllMySat

Download on the App Store